Superior, WI

3:48 PM CST on December 05, 2016 (GMT -0600)
Bong

Weather History for KSUW - October, 2012

Change the Weather History Date:

Friday, October 26, 2012

  Actual Average Record
Temperature  
Mean Temperature 35 °F -  
Max Temperature 38 °F 52 °F 69 °F (1964)
Min Temperature 32 °F 34 °F 10 °F (1962)
Degree Days  
Heating Degree Days 30    
Moisture  
Dew Point 24 °F    
Average Humidity 65    
Maximum Humidity 81    
Minimum Humidity 49    
Precipitation  
Precipitation 0.00 in - - ()
Sea Level Pressure  
Sea Level Pressure 30.20 in    
Wind  
Wind Speed 10 mph (West)    
Max Wind Speed 18 mph    
Max Gust Speed 24 mph    
Visibility 10 miles    
Events      
Averages and records for this station are not official NWS values.
T = Trace of Precipitation, MM = Missing Value Source: NWS Daily Summary

Daily Weather History Graph

Daily Weather History Graph

Search for Another Location

Airport or City:

Trip Planner

Search our weather history database for the weather conditions in past years. The results will help you decide how hot, cold, wet, or windy it might be!

Date:

Astronomy

Oct. 26, 2012 Rise Set
Actual Time 7:42 AM CDT 6:01 PM CDT
Civil Twilight 7:11 AM CDT 6:32 PM CDT
Nautical Twilight 6:35 AM CDT 7:08 PM CDT
Astronomical Twilight 6:00 AM CDT 7:43 PM CDT
Moon 4:24 PM CDT (10/26) 4:29 AM CDT (10/26)
Length of Visible Light 11h 21m
Length of Day
10h 19m
Waxing Gibbous, 91% of the Moon is Illuminated
Oct 26
Waxing Gibbous
Oct 29
Full
Nov 6
Last Quarter
Nov 13
New
Nov 20
First Quarter

Hourly Weather History & Observations

Time (CDT) Temp. Windchill Dew Point Humidity Pressure Visibility Wind Dir Wind Speed Gust Speed Precip Events Conditions
12:15 AM 33.4 °F 26.6 °F 28.2 °F 81% 30.01 in 10.0 mi WSW 8.1 mph - N/A   Clear
12:35 AM 33.6 °F 26.8 °F 28.2 °F 81% 30.01 in 10.0 mi WSW 8.1 mph - N/A   Scattered Clouds
1:15 AM 34.3 °F 27.0 °F 28.2 °F 78% 30.02 in 10.0 mi WSW 9.2 mph - N/A   Overcast
1:35 AM 34.5 °F 26.2 °F 27.9 °F 77% 30.03 in 10.0 mi WSW 11.5 mph - N/A   Mostly Cloudy
1:55 AM 34.3 °F 25.9 °F 27.7 °F 77% 30.03 in 10.0 mi WSW 11.5 mph 17.3 mph N/A   Scattered Clouds
2:15 AM 34.0 °F 25.5 °F 27.9 °F 78% 30.04 in 10.0 mi West 11.5 mph - N/A   Scattered Clouds
2:35 AM 34.3 °F 27.0 °F 28.0 °F 78% 30.05 in 10.0 mi WSW 9.2 mph - N/A   Scattered Clouds
2:55 AM 34.7 °F 27.5 °F 28.0 °F 77% 30.05 in 10.0 mi WSW 9.2 mph - N/A   Overcast
3:15 AM 35.4 °F 26.8 °F 28.2 °F 75% 30.06 in 10.0 mi WSW 12.7 mph - N/A   Overcast
3:35 AM 35.6 °F 27.1 °F 28.4 °F 75% 30.07 in 10.0 mi WSW 12.7 mph - N/A   Overcast
3:55 AM 35.2 °F 27.1 °F 28.4 °F 76% 30.07 in 10.0 mi West 11.5 mph - N/A   Overcast
4:15 AM 35.6 °F 28.6 °F 28.9 °F 77% 30.08 in 10.0 mi West 9.2 mph - N/A   Overcast
4:35 AM 35.1 °F 27.9 °F 28.8 °F 78% 30.08 in 10.0 mi West 9.2 mph - N/A   Overcast
4:55 AM 34.5 °F 27.9 °F 28.8 °F 79% 30.09 in 10.0 mi West 8.1 mph - N/A   Overcast
5:15 AM 34.9 °F 28.3 °F 28.9 °F 79% 30.09 in 10.0 mi West 8.1 mph - N/A   Overcast
5:35 AM 34.5 °F 27.3 °F 28.9 °F 80% 30.10 in 10.0 mi WSW 9.2 mph - N/A   Mostly Cloudy
5:55 AM 34.7 °F 26.9 °F 28.8 °F 79% 30.11 in 10.0 mi West 10.4 mph - N/A   Mostly Cloudy
6:15 AM 34.0 °F 25.5 °F 28.4 °F 80% 30.11 in 10.0 mi West 11.5 mph - N/A   Scattered Clouds
6:35 AM 34.3 °F 26.5 °F 28.0 °F 78% 30.12 in 10.0 mi West 10.4 mph - N/A   Clear
6:55 AM 33.8 °F 27.7 °F 27.7 °F 78% 30.13 in 10.0 mi West 6.9 mph - N/A   Scattered Clouds
7:15 AM 34.7 °F 28.8 °F 28.6 °F 78% 30.14 in 10.0 mi West 6.9 mph - N/A   Mostly Cloudy
7:55 AM 34.9 °F 26.2 °F 28.2 °F 77% 30.17 in 10.0 mi West 12.7 mph - N/A   Mostly Cloudy
8:35 AM 34.7 °F 25.9 °F 26.2 °F 71% 30.19 in 10.0 mi West 12.7 mph 20.7 mph N/A   Overcast
8:55 AM 35.2 °F 26.2 °F 25.3 °F 67% 30.20 in 10.0 mi West 13.8 mph 20.7 mph N/A   Overcast
9:15 AM 35.2 °F 26.6 °F 25.3 °F 67% 30.21 in 10.0 mi West 12.7 mph 18.4 mph N/A   Overcast
9:35 AM 35.2 °F 26.6 °F 26.2 °F 70% 30.22 in 10.0 mi West 12.7 mph 16.1 mph N/A   Overcast
9:55 AM 35.6 °F 28.0 °F 26.1 °F 68% 30.22 in 10.0 mi West 10.4 mph - N/A   Overcast
10:15 AM 36.3 °F 28.9 °F 24.6 °F 63% 30.23 in 10.0 mi West 10.4 mph 24.2 mph N/A   Overcast
10:35 AM 37.4 °F 28.9 °F 24.3 °F 59% 30.23 in 10.0 mi West 13.8 mph - N/A   Overcast
10:55 AM 37.6 °F 28.8 °F 24.1 °F 58% 30.24 in 10.0 mi West 15.0 mph 23.0 mph N/A   Overcast
11:15 AM 37.8 °F 28.6 °F 24.3 °F 58% 30.24 in 10.0 mi West 16.1 mph 20.7 mph N/A   Overcast
11:35 AM 37.9 °F 29.2 °F 24.3 °F 58% 30.24 in 10.0 mi West 15.0 mph 21.9 mph N/A   Overcast
11:55 AM 37.4 °F 28.5 °F 23.0 °F 56% 30.25 in 10.0 mi WNW 15.0 mph 20.7 mph N/A   Overcast
12:15 PM 38.1 °F 30.2 °F 22.5 °F 53% 30.26 in 10.0 mi WNW 12.7 mph 24.2 mph N/A   Overcast
12:35 PM 38.1 °F 29.5 °F 22.1 °F 53% 30.26 in 10.0 mi WNW 15.0 mph 19.6 mph N/A   Overcast
12:55 PM 38.1 °F 29.8 °F 22.6 °F 54% 30.25 in 10.0 mi West 13.8 mph 18.4 mph N/A   Overcast
1:15 PM 38.3 °F 28.7 °F 21.9 °F 52% 30.25 in 10.0 mi West 18.4 mph 24.2 mph N/A   Overcast
1:35 PM 37.8 °F 28.0 °F 21.7 °F 53% 30.25 in 10.0 mi West 18.4 mph 23.0 mph N/A   Overcast
1:55 PM 37.4 °F 28.5 °F 21.9 °F 54% 30.25 in 10.0 mi West 15.0 mph 20.7 mph N/A   Overcast
2:15 PM 37.4 °F 28.5 °F 21.4 °F 52% 30.25 in 10.0 mi West 15.0 mph 20.7 mph N/A   Overcast
2:35 PM 37.4 °F 29.3 °F 21.6 °F 53% 30.25 in 10.0 mi West 12.7 mph 19.6 mph N/A   Overcast
2:55 PM 37.8 °F 29.0 °F 21.9 °F 53% 30.25 in 10.0 mi WSW 15.0 mph 20.7 mph N/A   Overcast
3:15 PM 38.3 °F 31.9 °F 21.9 °F 52% 30.25 in 10.0 mi West 9.2 mph - N/A   Overcast
3:35 PM 37.8 °F 30.2 °F 21.4 °F 52% 30.25 in 10.0 mi West 11.5 mph 19.6 mph N/A   Overcast
3:55 PM 37.8 °F 29.4 °F 20.8 °F 51% 30.25 in 10.0 mi West 13.8 mph 19.6 mph N/A   Overcast
4:15 PM 37.9 °F 29.2 °F 20.8 °F 50% 30.25 in 10.0 mi West 15.0 mph 20.7 mph N/A   Overcast
4:35 PM 37.8 °F 30.2 °F 20.5 °F 50% 30.25 in 10.0 mi West 11.5 mph - N/A   Overcast
4:55 PM 37.8 °F 30.7 °F 19.9 °F 49% 30.25 in 10.0 mi WSW 10.4 mph - N/A   Overcast
5:15 PM 37.6 °F 30.5 °F 19.9 °F 49% 30.25 in 10.0 mi West 10.4 mph - N/A   Overcast
5:35 PM 37.4 °F 29.8 °F 20.3 °F 50% 30.25 in 10.0 mi West 11.5 mph - N/A   Overcast
5:55 PM 36.9 °F 31.4 °F 20.7 °F 52% 30.25 in 10.0 mi West 6.9 mph - N/A   Overcast
6:15 PM 36.9 °F 31.4 °F 20.7 °F 52% 30.26 in 10.0 mi WSW 6.9 mph - N/A   Overcast
6:35 PM 36.7 °F 32.0 °F 21.4 °F 54% 30.26 in 10.0 mi West 5.8 mph - N/A   Overcast
6:55 PM 36.1 °F 29.9 °F 22.6 °F 58% 30.27 in 10.0 mi West 8.1 mph - N/A   Overcast
7:15 PM 35.4 °F 30.5 °F 22.5 °F 59% 30.28 in 10.0 mi WNW 5.8 mph - N/A   Overcast
7:35 PM 34.7 °F 30.6 °F 23.0 °F 62% 30.28 in 10.0 mi West 4.6 mph - N/A   Overcast
7:55 PM 34.9 °F 32.0 °F 23.0 °F 62% 30.28 in 10.0 mi West 3.5 mph - N/A   Overcast
8:15 PM 34.7 °F 30.6 °F 23.0 °F 62% 30.28 in 10.0 mi West 4.6 mph - N/A   Overcast
8:35 PM 34.2 °F 31.2 °F 23.5 °F 65% 30.28 in 10.0 mi WSW 3.5 mph - N/A   Overcast
8:55 PM 33.8 °F 30.8 °F 23.4 °F 66% 30.28 in 10.0 mi WSW 3.5 mph - N/A   Overcast
9:15 PM 33.8 °F - 22.8 °F 64% 30.28 in 10.0 mi Calm Calm - N/A   Overcast
9:35 PM 32.7 °F 29.6 °F 22.6 °F 66% 30.28 in 10.0 mi SW 3.5 mph - N/A   Overcast
10:15 PM 32.5 °F 29.3 °F 21.7 °F 64% 30.29 in 10.0 mi WSW 3.5 mph - N/A   Overcast
10:35 PM 32.0 °F - 21.4 °F 65% 30.29 in 10.0 mi Calm Calm - N/A   Overcast
10:55 PM 32.0 °F - 22.1 °F 67% 30.29 in 10.0 mi Calm Calm - N/A   Overcast
11:35 PM 32.0 °F 27.5 °F 21.7 °F 66% 30.29 in 10.0 mi WSW 4.6 mph - N/A   Overcast
11:55 PM 32.0 °F 28.7 °F 21.6 °F 65% 30.29 in 10.0 mi SW 3.5 mph - N/A   Overcast